Погода в Поселке Анатолия Зверева

Россия / Астраханская область     46°08′19″N   47°47′51″E
темп.,
°C
ветер,
м/с
пор.,
м/с
влажн.,
%
обл.,
%
осадки,
мм/ч
давл.,
гПа
погр.,
м
14 августа, вс
вс1401:00+26в344115 0.0 101148
04:00+26всв511365 0.0 1010183
07:00+27в612475 0.0 1010297
10:00+36вюв892196 0.0 10101518
13:00+38юв89155 0.0 10093026
16:00+37юв99165 0.0 10092582
19:00+34вюв67202 0.0 1009810
22:00+28вюв59320 0.0 1010147
15 августа, пн
пн1501:00+27в49330 0.0 1009133
04:00+27в716310 0.0 1009336
07:00+27в715350 0.0 1010352
10:00+36вюв911180 0.0 10101267
13:00+38вюв1010150 0.0 10102102
16:00+38вюв99150 0.0 10091901
19:00+34вюв79190 0.0 1010684
22:00+28вюв510290 0.0 1011178
16 августа, вт
вт1601:00+27в512364 0.0 1011215
04:00+27в614324 0.0 1011260
07:00+27в714310 0.0 1012325
10:00+35в89190 0.0 1011978
13:00+39вюв77160 0.0 10112175
16:00+38юв87160 0.0 10112035
19:00+34юв67210 0.0 1011419
22:00+28вюв48340 0.0 1012116
17 августа, ср
ср1701:00+27вюв46330 0.0 101189
04:00+26вюв58350 0.0 1011121
07:00+27вюв513390 0.0 1011248
10:00+36ююв911190 0.0 10101180
13:00+37ю911231 0.0 10101216
16:00+36ююв912240 0.0 10091085
19:00+32ююв813290 0.0 1009665
22:00+26юв715590 0.0 1010348
18 августа, чт
чт1801:00+26вюв613534 0.0 1009293
04:00+27юв7164788 0.0 1009340
07:00+29юв81637100 0.0 1009529
10:00+33ююв11142468 0.0 10101046
13:00+35ююв11142026 0.0 10101450
16:00+35юв10131934 0.0 10101324
19:00+31юв711235 0.0 1011740
22:00+25вюв5104774 0.0 1012204